Вернуться в каталог

YUNHAI 2-1C

АктивенНаукаLEO
NORAD 43911·PAYLOAD·🇨🇳 China

Запущен Dec 29, 2018 с Jiuquan Satellite Launch Center

Loading…

Ближайшие Пролёты (ближайшие 24 часа)

TLE

СвежийSource: Space-Track

Эпоха: Sep 14, 2026, 14:12 UTC

1 43911U 18112C   26257.59212281  .00000016  00000-0  69544-4 0  9992
2 43911  50.0134 327.9443 0000584 121.8877 238.2095 14.29026499404571

Отслеживайте YUNHAI 2-1C в реальном времени с AllMySat

Download on the App Store